This is the latest recevied weather packets stored in our database for station/object KO4ZGL-13. If no packets are shown the sender has not sent any weather packets the latest 10 day(s).
| Time | Temp. | Humidity | Pressure | Rain* | Wind** | Luminosity | Snow |
|---|---|---|---|---|---|---|---|
| 1777929775 | 24.44° C | 51% | 1016.3 hPa | 0 mm | - | 265 W/m² | - |
| 1777929472 | 24.44° C | 50% | 1016.4 hPa | 0 mm | - | 339 W/m² | - |
| 1777929168 | 25° C | 49% | 1016.1 hPa | 0 mm | - | 329 W/m² | - |
| 1777928866 | 25° C | 50% | 1016.3 hPa | 0 mm | - | 319 W/m² | - |
| 1777928563 | 25.56° C | 49% | 1016.2 hPa | 0 mm | - | 388 W/m² | - |
| 1777928260 | 25.56° C | 49% | 1016.3 hPa | 0 mm | - | 380 W/m² | - |
| 1777927958 | 26.11° C | 48% | 1016.1 hPa | 0 mm | - | 321 W/m² | - |
| 1777927655 | 26.67° C | 49% | 1016.2 hPa | 0 mm | - | 377 W/m² | - |
| 1777927353 | 26.67° C | 45% | 1015.7 hPa | 0 mm | - | 345 W/m² | - |
| 1777927053 | 27.22° C | 43% | 1016 hPa | 0 mm | - | 383 W/m² | - |
| 1777926750 | 27.22° C | 42% | 1016.3 hPa | 0 mm | - | 443 W/m² | - |
| 1777926450 | 27.22° C | 40% | 1016.1 hPa | 0 mm | - | 507 W/m² | - |
| 1777926147 | 27.22° C | 41% | 1016.2 hPa | 0 mm | - | 466 W/m² | - |
| 1777925844 | 26.11° C | 43% | 1016.3 hPa | 0 mm | - | 529 W/m² | - |
| 1777925541 | 26.67° C | 41% | 1016.6 hPa | 0 mm | - | 547 W/m² | - |
| 1777925239 | 26.67° C | 41% | 1016.6 hPa | 0 mm | - | 547 W/m² | - |
| 1777924935 | 26.67° C | 42% | 1016.5 hPa | 0 mm | - | 521 W/m² | - |
| 1777924631 | 26.67° C | 43% | 1016.5 hPa | 0 mm | - | 554 W/m² | - |
| 1777924327 | 26.67° C | 43% | 1016.7 hPa | 0 mm | - | 519 W/m² | - |
| 1777924024 | 26.67° C | 43% | 1016.7 hPa | 0 mm | - | 592 W/m² | - |
| 1777923721 | 27.22° C | 42% | 1016.8 hPa | 0 mm | - | 542 W/m² | - |
| 1777923417 | 27.22° C | 41% | 1017 hPa | 0 mm | - | 526 W/m² | - |
| 1777923115 | 27.22° C | 40% | 1017.1 hPa | 0 mm | - | 551 W/m² | - |
| 1777922813 | 26.67° C | 41% | 1017.1 hPa | 0 mm | - | 633 W/m² | - |
| 1777922510 | 27.22° C | 41% | 1017.1 hPa | 0 mm | - | 481 W/m² | - |
* Rain latest hour (hover to see other rain measurements)
** Current wind speed in m/s (hover to see current wind gust speed)